STARLINK-1132 (45044 NORAD) Tracking and Keplerian Element Data

This shows tracking and keplerian element data for the satellite.

Feedback or suggestion? Click here.




ElementValue
Catalog45044
NameSTARLINK-1132
Epoch Orbit405
Epoch Day52.91667824
Epoch Year2020
RAAN118.0061
Inclination52.9961
Eccentricity0.0001121
Argument of Perigee69.9762
Mean Anonmoly95.1363
Mean Motion15.7490359
Decay Rate0.00117057
L11 45044U 20006A 20052.91667824 .00117057 00000-0 76824-3 0 9998
L22 45044 52.9961 118.0061 0001121 69.9762 95.1363 15.74903590 4051

Live tracking and technical data element details for STARLINK-1132 (NORAD 45044). STARLINK-1132 can be tracked NOW for your location showing map with azimuth and elevation plus other details from your city location.

Track the satellite on the map from your city or location and see movement details for azimuth, elevation, latitude, longitude, range, height, and movement on the map or in text.







IsCatalogInMostPopularTable: catalog: 45044, numindb: 4
Update: records affected: 1



GetName: 45044 STARLINK-1132

Hit Count: updated at: Mon, 24 Feb 2020 18:09:18 GMT